TimeEDT,TemperatureF,Dew PointF,Humidity,Sea Level PressureIn,VisibilityMPH,Wind Direction,Wind SpeedMPH,Gust SpeedMPH,PrecipitationIn,Events,Conditions,WindDirDegrees,DateUTC
12:15 AM,66.0,63.7,92,30.26,10.0,Calm,Calm,-,N/A,Rain,Rain,0,2013-08-18 04:15:00
12:35 AM,65.7,63.5,93,30.25,10.0,Calm,Calm,-,N/A,,Light Drizzle,0,2013-08-18 04:35:00
12:55 AM,65.3,63.0,92,30.26,7.0,Calm,Calm,-,N/A,Rain,Light Rain,0,2013-08-18 04:55:00
1:15 AM,64.6,62.6,93,30.26,7.0,Calm,Calm,-,0.01,Rain,Rain,0,2013-08-18 05:15:00
1:35 AM,63.5,61.7,94,30.25,10.0,Calm,Calm,-,0.02,,Drizzle,0,2013-08-18 05:35:00
1:55 AM,62.6,61.0,94,30.25,10.0,Calm,Calm,-,0.02,Rain,Light Rain,0,2013-08-18 05:55:00
2:15 AM,62.2,60.4,94,30.25,10.0,Calm,Calm,-,N/A,Rain,Light Rain,0,2013-08-18 06:15:00
2:35 AM,61.5,59.9,94,30.24,10.0,Calm,Calm,-,0.01,Rain,Light Rain,0,2013-08-18 06:35:00
2:55 AM,61.0,59.5,95,30.24,7.0,Calm,Calm,-,0.01,Rain,Light Rain,0,2013-08-18 06:55:00
3:15 AM,60.8,59.4,95,30.24,5.0,Calm,Calm,-,N/A,Rain,Light Rain,0,2013-08-18 07:15:00
3:35 AM,60.6,59.4,96,30.25,5.0,Calm,Calm,-,0.01,Rain,Light Rain,0,2013-08-18 07:35:00
3:55 AM,61.2,59.9,96,30.25,7.0,Calm,Calm,-,0.02,Rain,Rain,0,2013-08-18 07:55:00
4:15 AM,61.5,60.3,96,30.25,7.0,Calm,Calm,-,N/A,Rain,Rain,0,2013-08-18 08:15:00
4:35 AM,62.2,61.0,96,30.25,5.0,Calm,Calm,-,N/A,Rain,Light Rain,0,2013-08-18 08:35:00
4:55 AM,61.9,60.6,96,30.24,7.0,Calm,Calm,-,0.02,Rain,Light Rain,0,2013-08-18 08:55:00
5:15 AM,62.4,61.2,96,30.25,7.0,Calm,Calm,-,0.01,Rain,Light Rain,0,2013-08-18 09:15:00
5:35 AM,62.4,61.2,96,30.25,7.0,Calm,Calm,-,0.02,Rain,Light Rain,0,2013-08-18 09:35:00
5:55 AM,62.8,61.5,96,30.25,7.0,Calm,Calm,-,0.03,Rain,Light Rain,0,2013-08-18 09:55:00
6:15 AM,62.8,61.7,96,30.25,7.0,Calm,Calm,-,0.01,Rain,Light Rain,0,2013-08-18 10:15:00
6:35 AM,62.8,61.7,96,30.25,5.0,Calm,Calm,-,0.03,Rain,Rain,0,2013-08-18 10:35:00
6:55 AM,62.4,61.3,96,30.25,7.0,Calm,Calm,-,0.05,Rain,Rain,0,2013-08-18 10:55:00
7:15 AM,61.7,60.6,96,30.26,3.0,Calm,Calm,-,0.03,Rain,Rain,0,2013-08-18 11:15:00
7:35 AM,60.8,59.7,96,30.26,7.0,Calm,Calm,-,0.04,Rain,Light Rain,0,2013-08-18 11:35:00
7:55 AM,59.5,58.6,97,30.27,3.0,Calm,Calm,-,0.08,Rain,Rain,0,2013-08-18 11:55:00
8:15 AM,58.8,57.7,96,30.28,5.0,Calm,Calm,-,0.03,Rain,Rain,0,2013-08-18 12:15:00
8:35 AM,59.0,57.7,96,30.28,5.0,Calm,Calm,-,0.06,Rain,Rain,0,2013-08-18 12:35:00
8:55 AM,59.0,57.6,95,30.29,4.0,Calm,Calm,-,0.10,Rain,Rain,0,2013-08-18 12:55:00
9:15 AM,59.4,57.9,95,30.29,3.0,Calm,Calm,-,0.03,Rain,Rain,0,2013-08-18 13:15:00
9:35 AM,59.0,57.6,95,30.28,5.0,Calm,Calm,-,0.07,Rain,Rain,0,2013-08-18 13:35:00
9:55 AM,59.2,57.7,95,30.29,7.0,Calm,Calm,-,0.09,Rain,Rain,0,2013-08-18 13:55:00
10:15 AM,60.1,57.7,92,30.29,10.0,Calm,Calm,-,N/A,Rain,Light Rain,0,2013-08-18 14:15:00
10:35 AM,61.2,58.6,91,30.29,10.0,Calm,Calm,-,N/A,Rain,Light Rain,0,2013-08-18 14:35:00
10:55 AM,61.9,59.0,90,30.30,10.0,Calm,Calm,-,0.01,,Light Drizzle,0,2013-08-18 14:55:00
11:15 AM,62.6,59.7,90,30.30,10.0,Calm,Calm,-,N/A,Rain,Light Rain,0,2013-08-18 15:15:00
11:35 AM,62.8,59.7,90,30.29,10.0,Calm,Calm,-,N/A,Rain,Light Rain,0,2013-08-18 15:35:00
11:55 AM,63.0,59.9,90,30.29,10.0,Calm,Calm,-,N/A,Rain,Light Rain,0,2013-08-18 15:55:00
12:15 PM,64.0,60.4,88,30.28,10.0,Calm,Calm,-,0.01,Rain,Light Rain,0,2013-08-18 16:15:00
12:35 PM,63.9,60.4,89,30.28,10.0,Calm,Calm,-,0.01,,Light Drizzle,0,2013-08-18 16:35:00
12:55 PM,63.7,60.4,89,30.28,10.0,Calm,Calm,-,0.01,,Light Drizzle,0,2013-08-18 16:55:00
1:15 PM,63.7,60.4,89,30.28,10.0,Calm,Calm,-,0.01,Rain,Light Rain,0,2013-08-18 17:15:00
1:35 PM,63.5,60.6,90,30.27,10.0,Calm,Calm,-,0.01,Rain,Light Rain,0,2013-08-18 17:35:00
1:55 PM,63.3,60.3,90,30.27,10.0,Calm,Calm,-,0.02,Rain,Rain,0,2013-08-18 17:55:00
2:15 PM,64.2,61.0,89,30.26,10.0,Calm,Calm,-,0.01,Rain,Light Rain,0,2013-08-18 18:15:00
2:35 PM,64.4,60.4,87,30.27,10.0,Calm,Calm,-,0.01,,Overcast,0,2013-08-18 18:35:00
2:55 PM,65.1,60.6,85,30.26,10.0,Calm,Calm,-,0.01,,Overcast,0,2013-08-18 18:55:00
3:15 PM,65.5,60.1,83,30.25,10.0,Calm,Calm,-,N/A,,Overcast,0,2013-08-18 19:15:00
3:35 PM,66.2,60.8,83,30.25,10.0,Calm,Calm,-,N/A,Rain,Light Rain,0,2013-08-18 19:35:00
3:55 PM,66.2,61.0,83,30.24,10.0,Calm,Calm,-,N/A,,Overcast,0,2013-08-18 19:55:00
4:15 PM,66.0,60.8,83,30.24,10.0,Calm,Calm,-,N/A,,Overcast,0,2013-08-18 20:15:00
4:35 PM,66.7,60.6,81,30.23,10.0,Calm,Calm,-,N/A,,Overcast,0,2013-08-18 20:35:00
4:55 PM,66.2,60.3,81,30.22,10.0,Calm,Calm,-,N/A,,Overcast,0,2013-08-18 20:55:00
5:15 PM,66.4,60.6,82,30.23,10.0,Calm,Calm,-,N/A,,Overcast,0,2013-08-18 21:15:00
5:35 PM,66.6,61.0,82,30.23,10.0,Calm,Calm,-,N/A,,Overcast,0,2013-08-18 21:35:00
5:55 PM,67.1,61.2,81,30.22,10.0,Calm,Calm,-,N/A,,Overcast,0,2013-08-18 21:55:00
6:15 PM,67.5,61.9,82,30.22,10.0,Calm,Calm,-,N/A,,Overcast,0,2013-08-18 22:15:00
6:35 PM,67.3,61.7,82,30.21,10.0,Calm,Calm,-,N/A,,Overcast,0,2013-08-18 22:35:00
6:55 PM,66.9,61.7,83,30.22,10.0,Calm,Calm,-,N/A,,Overcast,0,2013-08-18 22:55:00
7:15 PM,66.2,62.2,87,30.22,10.0,Calm,Calm,-,N/A,,Overcast,0,2013-08-18 23:15:00
7:35 PM,66.2,62.1,86,30.22,10.0,Calm,Calm,-,N/A,,Overcast,0,2013-08-18 23:35:00
7:55 PM,65.7,61.9,88,30.22,10.0,Calm,Calm,-,N/A,,Overcast,0,2013-08-18 23:55:00
8:15 PM,65.3,62.2,90,30.22,10.0,Calm,Calm,-,N/A,,Drizzle,0,2013-08-19 00:15:00
8:35 PM,64.6,62.2,92,30.21,10.0,Calm,Calm,-,N/A,,Light Drizzle,0,2013-08-19 00:35:00
8:55 PM,64.0,62.1,93,30.21,10.0,Calm,Calm,-,N/A,,Overcast,0,2013-08-19 00:55:00
9:15 PM,63.7,61.7,93,30.22,10.0,Calm,Calm,-,N/A,,Overcast,0,2013-08-19 01:15:00
9:35 PM,63.0,61.2,94,30.22,10.0,Calm,Calm,-,N/A,,Overcast,0,2013-08-19 01:35:00
9:55 PM,62.8,61.0,94,30.22,10.0,Calm,Calm,-,N/A,,Overcast,0,2013-08-19 01:55:00
10:15 PM,62.6,61.0,94,30.21,7.0,Calm,Calm,-,N/A,,Overcast,0,2013-08-19 02:15:00
10:35 PM,63.0,61.5,95,30.21,7.0,Calm,Calm,-,N/A,,Overcast,0,2013-08-19 02:35:00
10:55 PM,63.3,62.1,96,30.21,7.0,Calm,Calm,-,N/A,,Overcast,0,2013-08-19 02:55:00
11:15 PM,63.5,62.4,96,30.21,7.0,Calm,Calm,-,N/A,,Overcast,0,2013-08-19 03:15:00
11:35 PM,63.3,62.1,96,30.21,10.0,Calm,Calm,-,N/A,,Mostly Cloudy,0,2013-08-19 03:35:00
11:55 PM,63.1,61.9,96,30.20,4.0,Calm,Calm,-,N/A,,Mostly Cloudy,0,2013-08-19 03:55:00